Location: North Runcton
(52.7000°N, 0.4333°E)
Time: 16:41:04
(UTC+00:00)

Cosmos 773 Rocket - Pass Details

Date: 19 May 2025
Orbit: 742 x 772 km, 74.1° (Epoch: 12 June)

Event Time Altitude Azimuth Distance (km) Brightness Sun altitude
Exits shadow 21:51:33 10° 190° (S) 2,270 6.0 -12.6°
Reaches altitude 10° 21:51:34 10° 190° (S) 2,261 6.0 -12.6°
Maximum altitude 21:56:37 63° 110° (ESE) 834 4.0 -12.9°
Drops below altitude 10° 22:01:41 10° 31° (NNE) 2,267 6.9 -13.3°
Sets 22:04:03 0° 28° (NNE) 3,194 7.7 -13.4°
